Time,TemperatureF,DewpointF,PressureIn,WindDirection,WindDirectionDegrees,WindSpeedMPH,WindSpeedGustMPH,Humidity,HourlyPrecipIn,Conditions,Clouds,dailyrainin,SoftwareType,DateUTC
2013-04-01 00:00:00,55.2,36.9,29.97,SSE,157,0.9,4.7,50,0.00,,,0.02,wxRedirect v1.1,2013-04-01 05:00:00,
2013-04-01 00:05:00,55.2,36.9,29.96,SSE,157,1.8,3.4,50,0.00,,,0.02,wxRedirect v1.1,2013-04-01 05:05:00,
2013-04-01 00:11:00,55.0,36.7,29.97,SSE,157,3.6,3.6,50,0.00,,,0.02,wxRedirect v1.1,2013-04-01 05:11:00,
2013-04-01 00:16:00,54.9,37.0,29.96,SSE,157,5.4,5.4,51,0.00,,,0.02,wxRedirect v1.1,2013-04-01 05:16:00,
2013-04-01 00:21:00,54.5,36.7,29.96,SSE,157,3.4,5.4,51,0.00,,,0.02,wxRedirect v1.1,2013-04-01 05:21:00,
2013-04-01 00:27:00,54.5,36.7,29.96,SSE,157,0.4,4.7,51,0.00,,,0.02,wxRedirect v1.1,2013-04-01 05:27:00,
2013-04-01 00:32:00,54.3,37.0,29.96,SSE,157,1.8,3.4,52,0.00,,,0.02,wxRedirect v1.1,2013-04-01 05:32:00,
2013-04-01 00:37:00,54.3,37.0,29.96,SSE,157,5.1,5.6,52,0.00,,,0.02,wxRedirect v1.1,2013-04-01 05:37:00,
2013-04-01 00:43:00,54.1,36.8,29.96,SSE,157,2.0,5.6,52,0.00,,,0.02,wxRedirect v1.1,2013-04-01 05:43:00,
2013-04-01 00:48:00,54.0,36.7,29.96,SSE,157,0.9,4.5,52,0.00,,,0.02,wxRedirect v1.1,2013-04-01 05:48:00,
2013-04-01 00:53:00,53.8,37.0,29.96,SSE,157,1.1,2.0,53,0.00,,,0.02,wxRedirect v1.1,2013-04-01 05:53:00,
2013-04-01 00:59:00,53.8,37.0,29.96,SSE,157,0.0,1.6,53,0.00,,,0.02,wxRedirect v1.1,2013-04-01 05:59:00,
2013-04-01 01:04:00,53.8,37.0,29.96,SSE,157,1.3,1.3,53,0.00,,,0.02,wxRedirect v1.1,2013-04-01 06:04:00,
2013-04-01 01:09:00,53.8,37.0,29.97,South,180,2.2,2.2,53,0.00,,,0.02,wxRedirect v1.1,2013-04-01 06:09:00,
2013-04-01 01:14:00,53.8,37.0,29.97,South,180,0.0,2.2,53,0.00,,,0.02,wxRedirect v1.1,2013-04-01 06:14:00,
2013-04-01 01:20:00,53.4,36.6,29.97,South,180,0.0,1.6,53,0.00,,,0.02,wxRedirect v1.1,2013-04-01 06:20:00,
2013-04-01 01:25:00,53.4,36.6,29.97,South,180,0.0,1.3,53,0.00,,,0.02,wxRedirect v1.1,2013-04-01 06:25:00,
2013-04-01 01:30:00,53.4,37.1,29.97,South,180,2.2,2.2,54,0.00,,,0.02,wxRedirect v1.1,2013-04-01 06:30:00,
2013-04-01 01:36:00,53.4,37.1,29.97,South,180,0.9,2.7,54,0.00,,,0.02,wxRedirect v1.1,2013-04-01 06:36:00,
2013-04-01 01:41:00,53.4,37.1,29.97,South,180,2.2,2.9,54,0.00,,,0.02,wxRedirect v1.1,2013-04-01 06:41:00,
2013-04-01 01:47:00,53.2,37.0,29.97,South,180,0.0,2.9,54,0.00,,,0.02,wxRedirect v1.1,2013-04-01 06:47:00,
2013-04-01 01:52:00,53.2,37.0,29.97,South,180,0.0,1.1,54,0.00,,,0.02,wxRedirect v1.1,2013-04-01 06:52:00,
2013-04-01 01:57:00,53.2,37.4,29.97,South,180,1.6,2.9,55,0.00,,,0.02,wxRedirect v1.1,2013-04-01 06:57:00,
2013-04-01 02:02:00,52.9,37.1,29.96,South,180,1.3,3.8,55,-99.99,,,0.00,wxRedirect v1.1,2013-04-01 07:02:00,
2013-04-01 02:08:00,52.9,37.1,29.97,South,180,2.9,3.8,55,-99.99,,,0.00,wxRedirect v1.1,2013-04-01 07:08:00,
2013-04-01 02:13:00,52.7,36.9,29.97,South,180,0.0,3.8,55,-99.99,,,0.00,wxRedirect v1.1,2013-04-01 07:13:00,
2013-04-01 02:18:00,52.7,36.9,29.97,South,180,0.0,0.0,55,-99.99,,,0.00,wxRedirect v1.1,2013-04-01 07:18:00,
2013-04-01 02:23:00,52.7,36.7,29.97,South,180,3.1,3.1,55,-99.99,,,0.00,wxRedirect v1.1,2013-04-01 07:23:00,
2013-04-01 02:28:00,52.5,36.7,29.97,South,180,1.6,3.1,55,-99.99,,,0.00,wxRedirect v1.1,2013-04-01 07:28:00,
2013-04-01 02:34:00,52.5,36.7,29.97,South,180,0.0,3.1,55,-99.99,,,0.00,wxRedirect v1.1,2013-04-01 07:34:00,
2013-04-01 02:39:00,52.3,37.0,29.97,South,180,6.0,6.0,56,-99.99,,,0.00,wxRedirect v1.1,2013-04-01 07:39:00,
2013-04-01 02:44:00,52.2,36.8,29.97,South,180,3.1,6.0,56,-99.99,,,0.00,wxRedirect v1.1,2013-04-01 07:44:00,
2013-04-01 02:50:00,52.0,36.7,29.98,ESE,112,0.0,3.1,56,-99.99,,,0.00,wxRedirect v1.1,2013-04-01 07:50:00,
2013-04-01 02:55:00,52.0,36.7,30.00,NE,45,3.6,7.4,56,-99.99,,,0.00,wxRedirect v1.1,2013-04-01 07:55:00,
2013-04-01 03:00:00,51.6,36.8,30.00,East,90,2.9,10.3,57,-99.99,,,0.00,wxRedirect v1.1,2013-04-01 08:00:00,
2013-04-01 03:06:00,51.4,36.6,30.01,NE,45,5.8,10.3,57,-99.99,,,0.00,wxRedirect v1.1,2013-04-01 08:06:00,
2013-04-01 03:11:00,51.4,36.6,30.01,ENE,67,5.6,8.3,57,-99.99,,,0.00,wxRedirect v1.1,2013-04-01 08:11:00,
2013-04-01 03:16:00,51.4,36.6,30.02,NE,45,0.0,8.3,57,-99.99,,,0.00,wxRedirect v1.1,2013-04-01 08:16:00,
2013-04-01 03:22:00,51.3,36.5,30.03,NE,45,4.0,5.6,57,-99.99,,,0.00,wxRedirect v1.1,2013-04-01 08:22:00,
2013-04-01 03:27:00,51.1,36.8,30.03,NE,45,0.0,5.6,58,-99.99,,,0.00,wxRedirect v1.1,2013-04-01 08:27:00,
2013-04-01 03:32:00,50.9,36.6,30.04,NNE,22,5.8,5.8,58,-99.99,,,0.00,wxRedirect v1.1,2013-04-01 08:32:00,
2013-04-01 03:38:00,50.7,36.4,30.04,NE,45,1.6,5.8,58,-99.99,,,0.00,wxRedirect v1.1,2013-04-01 08:38:00,
2013-04-01 03:43:00,50.5,36.3,30.05,NNE,22,4.9,4.9,58,-99.99,,,0.00,wxRedirect v1.1,2013-04-01 08:43:00,
2013-04-01 03:48:00,50.5,36.3,30.04,NNE,22,2.9,4.9,58,-99.99,,,0.00,wxRedirect v1.1,2013-04-01 08:48:00,
2013-04-01 03:54:00,50.4,36.6,30.05,NE,45,3.1,5.6,59,-99.99,,,0.00,wxRedirect v1.1,2013-04-01 08:54:00,
2013-04-01 03:59:00,50.2,36.4,30.04,NE,45,1.3,5.6,59,-99.99,,,0.00,wxRedirect v1.1,2013-04-01 08:59:00,
2013-04-01 04:04:00,49.8,36.1,30.05,NNE,22,5.6,7.4,59,-99.99,,,0.00,wxRedirect v1.1,2013-04-01 09:04:00,
2013-04-01 04:10:00,49.8,36.1,30.06,NE,45,6.0,10.3,59,-99.99,,,0.00,wxRedirect v1.1,2013-04-01 09:10:00,
2013-04-01 04:15:00,49.3,35.6,30.06,NE,45,8.3,10.3,59,-99.99,,,0.00,wxRedirect v1.1,2013-04-01 09:15:00,
2013-04-01 04:20:00,49.1,35.4,30.06,NE,45,11.0,11.0,59,-99.99,,,0.00,wxRedirect v1.1,2013-04-01 09:20:00,
2013-04-01 04:26:00,48.7,35.1,30.07,NE,45,11.2,11.2,59,-99.99,,,0.00,wxRedirect v1.1,2013-04-01 09:26:00,
2013-04-01 04:31:00,48.4,34.8,30.07,NE,45,9.2,11.2,59,-99.99,,,0.00,wxRedirect v1.1,2013-04-01 09:31:00,
2013-04-01 04:37:00,47.8,33.8,30.08,ENE,67,17.2,17.2,58,-99.99,,,0.00,wxRedirect v1.1,2013-04-01 09:37:00,
2013-04-01 04:42:00,47.3,33.2,30.09,NE,45,7.4,17.2,58,-99.99,,,0.00,wxRedirect v1.1,2013-04-01 09:42:00,
2013-04-01 04:47:00,46.9,32.9,30.09,NE,45,8.3,17.2,58,-99.99,,,0.00,wxRedirect v1.1,2013-04-01 09:47:00,
2013-04-01 04:52:00,46.6,32.5,30.09,NNE,22,8.3,16.3,58,-99.99,,,0.00,wxRedirect v1.1,2013-04-01 09:52:00,
2013-04-01 04:58:00,46.2,32.2,30.09,NE,45,16.3,16.3,58,-99.99,,,0.00,wxRedirect v1.1,2013-04-01 09:58:00,
2013-04-01 05:03:00,46.2,32.2,30.09,NE,45,7.2,16.3,58,-99.99,,,0.00,wxRedirect v1.1,2013-04-01 10:03:00,
2013-04-01 05:08:00,46.0,32.0,30.09,NNE,22,7.8,16.3,58,-99.99,,,0.00,wxRedirect v1.1,2013-04-01 10:08:00,
2013-04-01 05:14:00,45.7,31.7,30.10,NE,45,14.8,14.8,58,-99.99,,,0.00,wxRedirect v1.1,2013-04-01 10:14:00,
2013-04-01 05:19:00,45.3,31.8,30.11,ENE,67,8.7,14.8,59,-99.99,,,0.00,wxRedirect v1.1,2013-04-01 10:19:00,
2013-04-01 05:24:00,45.0,31.5,30.11,NNE,22,8.1,9.8,59,-99.99,,,0.00,wxRedirect v1.1,2013-04-01 10:24:00,
2013-04-01 05:30:00,44.6,31.6,30.11,NNE,22,7.8,14.5,60,-99.99,,,0.00,wxRedirect v1.1,2013-04-01 10:30:00,
2013-04-01 05:35:00,44.4,31.5,30.12,ENE,67,15.0,15.0,60,-99.99,,,0.00,wxRedirect v1.1,2013-04-01 10:35:00,
2013-04-01 05:40:00,43.9,30.9,30.12,ENE,67,1.8,15.0,60,-99.99,,,0.00,wxRedirect v1.1,2013-04-01 10:40:00,
2013-04-01 05:46:00,43.5,30.9,30.12,NE,45,10.3,13.4,61,-99.99,,,0.00,wxRedirect v1.1,2013-04-01 10:46:00,
2013-04-01 05:51:00,43.3,31.2,30.13,ENE,67,8.7,17.2,62,-99.99,,,0.00,wxRedirect v1.1,2013-04-01 10:51:00,
2013-04-01 05:56:00,43.0,30.8,30.13,NE,45,3.1,17.2,62,-99.99,,,0.00,wxRedirect v1.1,2013-04-01 10:56:00,
2013-04-01 06:02:00,42.6,30.8,30.13,NE,45,6.5,13.9,63,-99.99,,,0.00,wxRedirect v1.1,2013-04-01 11:02:00,
2013-04-01 06:07:00,42.6,30.8,30.13,NE,45,5.8,7.8,63,-99.99,,,0.00,wxRedirect v1.1,2013-04-01 11:07:00,
2013-04-01 06:12:00,42.6,30.8,30.14,NE,45,9.6,9.6,63,-99.99,,,0.00,wxRedirect v1.1,2013-04-01 11:12:00,
2013-04-01 06:17:00,42.4,31.1,30.14,NE,45,3.8,9.6,64,-99.99,,,0.00,wxRedirect v1.1,2013-04-01 11:17:00,
2013-04-01 06:22:00,42.4,31.1,30.14,NE,45,11.0,11.0,64,-99.99,,,0.00,wxRedirect v1.1,2013-04-01 11:22:00,
2013-04-01 06:28:00,42.4,31.1,30.14,NE,45,7.2,11.0,64,-99.99,,,0.00,wxRedirect v1.1,2013-04-01 11:28:00,
2013-04-01 06:33:00,42.4,31.5,30.15,NE,45,7.4,7.4,65,-99.99,,,0.00,wxRedirect v1.1,2013-04-01 11:33:00,
2013-04-01 06:39:00,42.1,31.1,30.15,NNE,22,6.9,7.4,65,-99.99,,,0.00,wxRedirect v1.1,2013-04-01 11:39:00,
2013-04-01 06:44:00,41.9,31.0,30.15,NE,45,13.9,13.9,65,-99.99,,,0.00,wxRedirect v1.1,2013-04-01 11:44:00,
2013-04-01 06:49:00,41.7,30.8,30.15,NE,45,8.1,14.8,65,-99.99,,,0.00,wxRedirect v1.1,2013-04-01 11:49:00,
2013-04-01 06:54:00,41.5,31.0,30.15,NE,45,10.1,14.8,66,-99.99,,,0.00,wxRedirect v1.1,2013-04-01 11:54:00,
2013-04-01 07:00:00,41.5,31.0,30.15,NE,45,11.2,12.8,66,-99.99,,,0.00,wxRedirect v1.1,2013-04-01 12:00:00,
2013-04-01 07:05:00,41.4,31.2,30.16,ENE,67,6.9,12.8,67,-99.99,,,0.00,wxRedirect v1.1,2013-04-01 12:05:00,
2013-04-01 07:10:00,41.2,31.4,30.16,NE,45,12.5,12.5,68,-99.99,,,0.00,wxRedirect v1.1,2013-04-01 12:10:00,
2013-04-01 07:16:00,40.8,31.1,30.16,NE,45,4.5,12.5,68,-99.99,,,0.00,wxRedirect v1.1,2013-04-01 12:16:00,
2013-04-01 07:21:00,40.8,31.4,30.17,NNE,22,9.2,12.5,69,-99.99,,,0.00,wxRedirect v1.1,2013-04-01 12:21:00,
2013-04-01 07:26:00,40.8,31.4,30.17,NE,45,8.9,11.9,69,-99.99,,,0.00,wxRedirect v1.1,2013-04-01 12:26:00,
2013-04-01 07:32:00,40.5,31.5,30.17,NE,45,10.3,16.3,70,-99.99,,,0.00,wxRedirect v1.1,2013-04-01 12:32:00,
2013-04-01 07:37:00,40.5,31.5,30.17,NE,45,9.6,16.3,70,-99.99,,,0.00,wxRedirect v1.1,2013-04-01 12:37:00,
2013-04-01 07:42:00,40.5,31.5,30.18,NE,45,12.8,12.8,70,-99.99,,,0.00,wxRedirect v1.1,2013-04-01 12:42:00,
2013-04-01 07:48:00,40.5,31.8,30.18,ENE,67,6.7,12.8,71,-99.99,,,0.00,wxRedirect v1.1,2013-04-01 12:48:00,
2013-04-01 07:53:00,40.5,31.8,30.17,ENE,67,11.0,12.8,71,-99.99,,,0.00,wxRedirect v1.1,2013-04-01 12:53:00,
2013-04-01 07:58:00,40.3,31.9,30.18,ENE,67,1.6,21.7,72,-99.99,,,0.00,wxRedirect v1.1,2013-04-01 12:58:00,
2013-04-01 08:04:00,40.3,31.9,30.18,NE,45,17.2,21.7,72,-99.99,,,0.00,wxRedirect v1.1,2013-04-01 13:04:00,
2013-04-01 08:09:00,40.5,32.1,30.18,ENE,67,3.6,17.2,72,-99.99,,,0.00,wxRedirect v1.1,2013-04-01 13:09:00,
2013-04-01 08:15:00,40.6,32.6,30.18,North,0,15.2,17.2,73,-99.99,,,0.00,wxRedirect v1.1,2013-04-01 13:15:00,
2013-04-01 08:20:00,40.6,32.6,30.19,NE,45,15.4,15.4,73,-99.99,,,0.00,wxRedirect v1.1,2013-04-01 13:20:00,
2013-04-01 08:25:00,40.8,32.8,30.19,NE,45,16.8,16.8,73,-99.99,,,0.00,wxRedirect v1.1,2013-04-01 13:25:00,
2013-04-01 08:31:00,40.8,32.8,30.19,NE,45,8.1,16.8,73,-99.99,,,0.00,wxRedirect v1.1,2013-04-01 13:31:00,
2013-04-01 08:36:00,40.8,32.8,30.20,NNE,22,16.1,16.8,73,-99.99,,,0.00,wxRedirect v1.1,2013-04-01 13:36:00,
2013-04-01 08:41:00,40.8,32.8,30.20,NE,45,11.9,16.1,73,-99.99,,,0.00,wxRedirect v1.1,2013-04-01 13:41:00,
2013-04-01 08:47:00,40.6,32.6,30.20,ENE,67,10.3,18.6,73,-99.99,,,0.00,wxRedirect v1.1,2013-04-01 13:47:00,
2013-04-01 08:52:00,40.5,32.1,30.20,NE,45,9.6,18.6,72,-99.99,,,0.00,wxRedirect v1.1,2013-04-01 13:52:00,
2013-04-01 08:57:00,40.3,31.9,30.20,NE,45,19.0,19.0,72,-99.99,,,0.00,wxRedirect v1.1,2013-04-01 13:57:00,
2013-04-01 09:03:00,39.9,31.6,30.20,NNE,22,19.5,19.5,72,-99.99,,,0.00,wxRedirect v1.1,2013-04-01 14:03:00,
2013-04-01 09:08:00,39.9,31.6,30.21,East,90,10.5,19.5,72,-99.99,,,0.00,wxRedirect v1.1,2013-04-01 14:08:00,
2013-04-01 09:13:00,39.7,31.4,30.22,NE,45,8.9,10.5,72,-99.99,,,0.00,wxRedirect v1.1,2013-04-01 14:13:00,
2013-04-01 09:19:00,39.6,31.2,30.21,NE,45,6.3,11.4,72,-99.99,,,0.00,wxRedirect v1.1,2013-04-01 14:19:00,
2013-04-01 09:24:00,39.2,30.9,30.22,NNW,337,9.2,13.6,72,-99.99,,,0.00,wxRedirect v1.1,2013-04-01 14:24:00,
2013-04-01 09:29:00,39.0,30.7,30.22,NNE,22,7.8,13.6,72,-99.99,,,0.00,wxRedirect v1.1,2013-04-01 14:29:00,
2013-04-01 09:34:00,39.0,30.7,30.22,NNE,22,14.3,14.3,72,-99.99,,,0.00,wxRedirect v1.1,2013-04-01 14:34:00,
2013-04-01 09:39:00,38.8,30.5,30.22,NE,45,13.9,14.3,72,-99.99,,,0.00,wxRedirect v1.1,2013-04-01 14:39:00,
2013-04-01 09:45:00,38.8,30.5,30.21,NE,45,12.1,17.0,72,-99.99,,,0.00,wxRedirect v1.1,2013-04-01 14:45:00,
2013-04-01 09:50:00,38.8,30.5,30.22,NNE,22,11.0,17.0,72,-99.99,,,0.00,wxRedirect v1.1,2013-04-01 14:50:00,
2013-04-01 09:55:00,38.8,30.5,30.22,NE,45,4.9,12.8,72,-99.99,,,0.00,wxRedirect v1.1,2013-04-01 14:55:00,
2013-04-01 10:00:00,38.8,30.5,30.22,NE,45,12.5,12.8,72,-99.99,,,0.00,wxRedirect v1.1,2013-04-01 15:00:00,
2013-04-01 10:05:00,39.0,30.7,30.22,ENE,67,4.7,13.2,72,-99.99,,,0.00,wxRedirect v1.1,2013-04-01 15:05:00,
2013-04-01 10:11:00,39.0,30.7,30.21,ENE,67,4.3,13.2,72,-99.99,,,0.00,wxRedirect v1.1,2013-04-01 15:11:00,
2013-04-01 10:16:00,39.0,30.7,30.21,NE,45,8.3,8.7,72,-99.99,,,0.00,wxRedirect v1.1,2013-04-01 15:16:00,
2013-04-01 10:21:00,39.0,30.7,30.21,NE,45,9.2,9.2,72,-99.99,,,0.00,wxRedirect v1.1,2013-04-01 15:21:00,
2013-04-01 10:27:00,39.0,30.7,30.22,NNE,22,4.5,10.5,72,-99.99,,,0.00,wxRedirect v1.1,2013-04-01 15:27:00,
2013-04-01 10:32:00,39.0,30.7,30.22,ENE,67,6.9,10.5,72,-99.99,,,0.00,wxRedirect v1.1,2013-04-01 15:32:00,
2013-04-01 10:37:00,39.4,31.0,30.22,NE,45,12.8,12.8,72,-99.99,,,0.00,wxRedirect v1.1,2013-04-01 15:37:00,
2013-04-01 10:43:00,39.4,31.0,30.23,NE,45,11.6,12.8,72,-99.99,,,0.00,wxRedirect v1.1,2013-04-01 15:43:00,
2013-04-01 10:48:00,39.4,31.0,30.23,NE,45,11.6,12.8,72,-99.99,,,0.00,wxRedirect v1.1,2013-04-01 15:48:00,
2013-04-01 10:53:00,39.4,30.7,30.24,North,0,12.5,13.2,71,-99.99,,,0.00,wxRedirect v1.1,2013-04-01 15:53:00,
2013-04-01 10:59:00,39.4,30.7,30.24,ENE,67,8.9,13.2,71,-99.99,,,0.00,wxRedirect v1.1,2013-04-01 15:59:00,
2013-04-01 11:04:00,39.6,30.9,30.25,NE,45,14.8,14.8,71,-99.99,,,0.00,wxRedirect v1.1,2013-04-01 16:04:00,
2013-04-01 11:09:00,39.6,30.6,30.24,NNE,22,12.1,14.8,70,-99.99,,,0.00,wxRedirect v1.1,2013-04-01 16:09:00,
2013-04-01 11:15:00,39.6,30.6,30.25,NE,45,6.3,14.8,70,-99.99,,,0.00,wxRedirect v1.1,2013-04-01 16:15:00,
2013-04-01 11:20:00,39.7,30.7,30.26,NE,45,4.3,11.2,70,-99.99,,,0.00,wxRedirect v1.1,2013-04-01 16:20:00,
2013-04-01 11:25:00,39.7,30.7,30.26,North,0,14.3,17.9,70,-99.99,,,0.00,wxRedirect v1.1,2013-04-01 16:25:00,
2013-04-01 11:31:00,39.6,30.2,30.27,NNE,22,5.6,17.9,69,-99.99,,,0.00,wxRedirect v1.1,2013-04-01 16:31:00,
2013-04-01 11:36:00,39.4,30.0,30.28,NNE,22,0.0,14.3,69,-99.99,,,0.00,wxRedirect v1.1,2013-04-01 16:36:00,
2013-04-01 11:41:00,39.4,30.0,30.29,NNW,337,3.8,8.5,69,-99.99,,,0.00,wxRedirect v1.1,2013-04-01 16:41:00,
2013-04-01 11:47:00,39.4,30.0,30.29,NNE,22,13.6,13.6,69,-99.99,,,0.00,wxRedirect v1.1,2013-04-01 16:47:00,
2013-04-01 11:53:00,39.4,30.0,30.25,ENE,67,6.7,13.6,69,-99.99,,,0.00,wxRedirect v1.1,2013-04-01 16:53:00,
2013-04-01 11:58:00,39.0,30.0,30.26,NE,45,10.5,10.5,70,-99.99,,,0.00,wxRedirect v1.1,2013-04-01 16:58:00,
2013-04-01 12:03:00,38.8,30.2,30.27,NNE,22,5.8,10.5,71,-99.99,,,0.00,wxRedirect v1.1,2013-04-01 17:03:00,
2013-04-01 12:09:00,38.5,29.9,30.25,East,90,3.1,9.4,71,-99.99,,,0.00,wxRedirect v1.1,2013-04-01 17:09:00,
2013-04-01 12:14:00,38.5,30.2,30.26,NE,45,7.2,7.2,72,-99.99,,,0.00,wxRedirect v1.1,2013-04-01 17:14:00,
2013-04-01 12:19:00,38.3,30.4,30.26,NE,45,6.9,12.5,73,-99.99,,,0.00,wxRedirect v1.1,2013-04-01 17:19:00,
2013-04-01 12:25:00,38.3,30.4,30.26,NE,45,8.5,14.1,73,0.02,,,0.02,wxRedirect v1.1,2013-04-01 17:25:00,
2013-04-01 12:30:00,38.3,30.4,30.25,NE,45,13.6,14.1,73,0.02,,,0.02,wxRedirect v1.1,2013-04-01 17:30:00,
2013-04-01 12:35:00,38.3,30.4,30.23,NE,45,5.6,13.6,73,0.02,,,0.02,wxRedirect v1.1,2013-04-01 17:35:00,
2013-04-01 12:41:00,38.1,30.5,30.23,NE,45,15.0,15.0,74,0.04,,,0.04,wxRedirect v1.1,2013-04-01 17:41:00,
2013-04-01 12:47:00,37.8,30.5,30.23,ENE,67,11.9,17.0,75,0.06,,,0.06,wxRedirect v1.1,2013-04-01 17:47:00,
2013-04-01 12:52:00,37.8,30.5,30.26,North,0,9.6,17.0,75,0.06,,,0.06,wxRedirect v1.1,2013-04-01 17:52:00,
2013-04-01 12:57:00,37.8,30.5,30.25,NNE,22,7.4,15.0,75,0.06,,,0.06,wxRedirect v1.1,2013-04-01 17:57:00,
2013-04-01 13:03:00,37.9,30.7,30.24,NNE,22,13.2,13.4,75,0.06,,,0.06,wxRedirect v1.1,2013-04-01 18:03:00,
2013-04-01 13:08:00,37.9,30.7,30.24,NE,45,8.7,15.4,75,0.06,,,0.06,wxRedirect v1.1,2013-04-01 18:08:00,
2013-04-01 13:13:00,37.9,30.7,30.24,NE,45,14.3,15.4,75,0.08,,,0.08,wxRedirect v1.1,2013-04-01 18:13:00,
2013-04-01 13:19:00,37.9,30.7,30.23,ENE,67,11.6,14.3,75,0.08,,,0.08,wxRedirect v1.1,2013-04-01 18:19:00,
2013-04-01 13:24:00,37.9,30.7,30.23,NE,45,6.5,11.6,75,0.06,,,0.08,wxRedirect v1.1,2013-04-01 18:24:00,
2013-04-01 13:30:00,37.9,30.7,30.22,East,90,7.6,11.6,75,0.06,,,0.08,wxRedirect v1.1,2013-04-01 18:30:00,
2013-04-01 13:35:00,37.9,30.7,30.23,NE,45,8.1,11.4,75,0.06,,,0.08,wxRedirect v1.1,2013-04-01 18:35:00,
2013-04-01 13:40:00,38.1,30.5,30.23,NE,45,0.0,10.1,74,0.04,,,0.08,wxRedirect v1.1,2013-04-01 18:40:00,
2013-04-01 13:45:00,38.1,30.5,30.22,East,90,4.7,10.1,74,0.02,,,0.08,wxRedirect v1.1,2013-04-01 18:45:00,
2013-04-01 13:51:00,38.3,31.0,30.22,NE,45,3.1,5.8,75,0.02,,,0.08,wxRedirect v1.1,2013-04-01 18:51:00,
2013-04-01 13:56:00,38.3,30.7,30.21,NE,45,7.4,9.8,74,0.04,,,0.10,wxRedirect v1.1,2013-04-01 18:56:00,
2013-04-01 14:01:00,38.5,30.9,30.22,NNE,22,6.5,20.4,74,0.04,,,0.10,wxRedirect v1.1,2013-04-01 19:01:00,
2013-04-01 14:07:00,38.5,30.9,30.22,NE,45,12.8,20.4,74,0.04,,,0.10,wxRedirect v1.1,2013-04-01 19:07:00,
2013-04-01 14:12:00,38.7,31.0,30.20,NE,45,12.3,13.6,74,0.02,,,0.10,wxRedirect v1.1,2013-04-01 19:12:00,
2013-04-01 14:18:00,38.7,30.7,30.21,NNE,22,14.8,14.8,73,0.02,,,0.10,wxRedirect v1.1,2013-04-01 19:18:00,
2013-04-01 14:23:00,38.7,30.4,30.23,NE,45,0.0,14.8,72,0.04,,,0.12,wxRedirect v1.1,2013-04-01 19:23:00,
2013-04-01 14:28:00,38.8,30.5,30.23,NE,45,3.8,7.8,72,0.04,,,0.12,wxRedirect v1.1,2013-04-01 19:28:00,
2013-04-01 14:34:00,38.8,30.5,30.25,NNE,22,6.0,7.8,72,0.04,,,0.12,wxRedirect v1.1,2013-04-01 19:34:00,
2013-04-01 14:39:00,39.0,30.7,30.24,NE,45,5.4,6.0,72,0.06,,,0.14,wxRedirect v1.1,2013-04-01 19:39:00,
2013-04-01 14:44:00,39.0,30.7,30.24,NNE,22,1.8,6.0,72,0.06,,,0.14,wxRedirect v1.1,2013-04-01 19:44:00,
2013-04-01 14:49:00,39.0,30.7,30.24,NE,45,4.0,4.0,72,0.06,,,0.14,wxRedirect v1.1,2013-04-01 19:49:00,
2013-04-01 14:55:00,39.4,31.0,30.24,NE,45,3.8,5.6,72,0.04,,,0.14,wxRedirect v1.1,2013-04-01 19:55:00,
2013-04-01 15:00:00,39.4,31.0,30.23,NE,45,3.1,5.6,72,0.06,,,0.16,wxRedirect v1.1,2013-04-01 20:00:00,
2013-04-01 15:06:00,39.4,31.0,30.24,NE,45,4.0,6.3,72,0.06,,,0.16,wxRedirect v1.1,2013-04-01 20:06:00,
2013-04-01 15:11:00,39.4,31.0,30.24,NE,45,3.6,6.3,72,0.06,,,0.16,wxRedirect v1.1,2013-04-01 20:11:00,
2013-04-01 15:16:00,39.4,31.0,30.24,NE,45,0.0,4.0,72,0.06,,,0.16,wxRedirect v1.1,2013-04-01 20:16:00,
2013-04-01 15:22:00,39.6,31.2,30.23,NE,45,3.8,3.8,72,0.04,,,0.16,wxRedirect v1.1,2013-04-01 20:22:00,
2013-04-01 15:27:00,39.6,31.2,30.22,ESE,112,5.8,5.8,72,0.04,,,0.16,wxRedirect v1.1,2013-04-01 20:27:00,
2013-04-01 15:32:00,39.6,31.2,30.22,NE,45,6.3,6.3,72,0.04,,,0.16,wxRedirect v1.1,2013-04-01 20:32:00,
2013-04-01 15:38:00,39.6,31.2,30.22,NE,45,5.6,6.3,72,0.02,,,0.16,wxRedirect v1.1,2013-04-01 20:38:00,
2013-04-01 15:43:00,39.7,31.4,30.22,NE,45,7.4,7.4,72,0.02,,,0.16,wxRedirect v1.1,2013-04-01 20:43:00,
2013-04-01 15:48:00,39.6,31.2,30.22,NE,45,5.8,7.4,72,0.02,,,0.16,wxRedirect v1.1,2013-04-01 20:48:00,
2013-04-01 15:53:00,39.6,30.9,30.22,NE,45,0.0,7.4,71,0.00,,,0.16,wxRedirect v1.1,2013-04-01 20:53:00,
2013-04-01 15:59:00,39.7,31.1,30.22,East,90,0.0,6.9,71,0.00,,,0.16,wxRedirect v1.1,2013-04-01 20:59:00,
2013-04-01 16:04:00,39.9,31.2,30.22,NE,45,4.9,4.9,71,0.00,,,0.16,wxRedirect v1.1,2013-04-01 21:04:00,
2013-04-01 16:09:00,39.9,31.2,30.22,ENE,67,2.5,4.9,71,0.00,,,0.16,wxRedirect v1.1,2013-04-01 21:09:00,
2013-04-01 16:15:00,39.9,30.9,30.22,NE,45,5.4,5.4,70,0.00,,,0.16,wxRedirect v1.1,2013-04-01 21:15:00,
2013-04-01 16:20:00,39.9,30.9,30.22,NE,45,4.9,5.4,70,0.00,,,0.16,wxRedirect v1.1,2013-04-01 21:20:00,
2013-04-01 16:25:00,39.9,30.2,30.22,ENE,67,4.3,7.2,68,0.00,,,0.16,wxRedirect v1.1,2013-04-01 21:25:00,
2013-04-01 16:31:00,39.9,30.2,30.21,ENE,67,3.4,7.2,68,0.00,,,0.16,wxRedirect v1.1,2013-04-01 21:31:00,
2013-04-01 16:36:00,39.7,29.6,30.22,NE,45,9.6,9.6,67,0.00,,,0.16,wxRedirect v1.1,2013-04-01 21:36:00,
2013-04-01 16:41:00,39.7,29.6,30.22,East,90,5.4,9.6,67,0.00,,,0.16,wxRedirect v1.1,2013-04-01 21:41:00,
2013-04-01 16:47:00,39.9,29.8,30.21,NE,45,8.3,9.6,67,0.00,,,0.16,wxRedirect v1.1,2013-04-01 21:47:00,
2013-04-01 16:52:00,39.9,29.8,30.21,ENE,67,2.9,8.3,67,0.00,,,0.16,wxRedirect v1.1,2013-04-01 21:52:00,
2013-04-01 16:57:00,39.9,29.4,30.21,ESE,112,8.1,8.3,66,0.00,,,0.16,wxRedirect v1.1,2013-04-01 21:57:00,
2013-04-01 17:02:00,40.1,29.2,30.21,ESE,112,4.9,8.1,65,0.00,,,0.16,wxRedirect v1.1,2013-04-01 22:02:00,
2013-04-01 17:07:00,39.9,28.7,30.21,East,90,0.0,5.1,64,0.00,,,0.16,wxRedirect v1.1,2013-04-01 22:07:00,
2013-04-01 17:13:00,40.1,28.8,30.21,NE,45,4.9,6.5,64,0.00,,,0.16,wxRedirect v1.1,2013-04-01 22:13:00,
2013-04-01 17:18:00,40.3,29.0,30.21,NE,45,2.7,6.5,64,0.00,,,0.16,wxRedirect v1.1,2013-04-01 22:18:00,
2013-04-01 17:23:00,40.5,29.2,30.21,NE,45,5.4,5.4,64,0.00,,,0.16,wxRedirect v1.1,2013-04-01 22:23:00,
2013-04-01 17:29:00,40.6,29.0,30.20,ENE,67,2.0,5.4,63,0.00,,,0.16,wxRedirect v1.1,2013-04-01 22:29:00,
2013-04-01 17:34:00,40.6,28.6,30.20,ENE,67,2.0,4.0,62,0.00,,,0.16,wxRedirect v1.1,2013-04-01 22:34:00,
2013-04-01 17:39:00,40.6,28.6,30.20,NE,45,0.0,7.6,62,0.00,,,0.16,wxRedirect v1.1,2013-04-01 22:39:00,
2013-04-01 17:45:00,40.6,28.2,30.20,ESE,112,3.6,9.8,61,0.00,,,0.16,wxRedirect v1.1,2013-04-01 22:45:00,
2013-04-01 17:50:00,40.8,28.4,30.19,NE,45,1.8,9.8,61,0.00,,,0.16,wxRedirect v1.1,2013-04-01 22:50:00,
2013-04-01 17:55:00,40.8,28.4,30.19,East,90,0.0,6.0,61,0.00,,,0.16,wxRedirect v1.1,2013-04-01 22:55:00,
2013-04-01 18:01:00,40.8,28.4,30.19,ENE,67,1.8,6.0,61,0.00,,,0.16,wxRedirect v1.1,2013-04-01 23:01:00,
2013-04-01 18:06:00,40.6,28.2,30.19,NE,45,3.4,5.1,61,0.00,,,0.16,wxRedirect v1.1,2013-04-01 23:06:00,
2013-04-01 18:11:00,40.8,28.4,30.19,NE,45,2.0,5.1,61,0.00,,,0.16,wxRedirect v1.1,2013-04-01 23:11:00,
2013-04-01 18:17:00,40.8,28.4,30.19,NE,45,2.2,4.0,61,0.00,,,0.16,wxRedirect v1.1,2013-04-01 23:17:00,
2013-04-01 18:22:00,40.8,28.4,30.19,ENE,67,4.0,4.7,61,0.00,,,0.16,wxRedirect v1.1,2013-04-01 23:22:00,
2013-04-01 18:27:00,40.6,27.9,30.19,NE,45,6.0,6.0,60,0.00,,,0.16,wxRedirect v1.1,2013-04-01 23:27:00,
2013-04-01 18:33:00,40.6,27.9,30.19,ENE,67,0.0,6.0,60,0.00,,,0.16,wxRedirect v1.1,2013-04-01 23:33:00,
2013-04-01 18:38:00,40.6,27.4,30.19,NE,45,0.0,6.0,59,0.00,,,0.16,wxRedirect v1.1,2013-04-01 23:38:00,
2013-04-01 18:43:00,40.6,27.9,30.19,ENE,67,4.9,6.0,60,0.00,,,0.16,wxRedirect v1.1,2013-04-01 23:43:00,
2013-04-01 18:49:00,40.6,27.4,30.20,ENE,67,0.0,4.9,59,0.00,,,0.16,wxRedirect v1.1,2013-04-01 23:49:00,
2013-04-01 18:54:00,40.8,27.6,30.19,NE,45,3.6,3.6,59,0.00,,,0.16,wxRedirect v1.1,2013-04-01 23:54:00,
2013-04-01 18:59:00,40.6,27.4,30.19,NE,45,0.0,4.0,59,0.00,,,0.16,wxRedirect v1.1,2013-04-01 23:59:00,
2013-04-01 19:05:00,40.6,27.4,30.19,ENE,67,1.8,4.0,59,0.00,,,0.16,wxRedirect v1.1,2013-04-02 00:05:00,
2013-04-01 19:10:00,40.6,27.4,30.20,ENE,67,0.0,2.7,59,0.00,,,0.16,wxRedirect v1.1,2013-04-02 00:10:00,
2013-04-01 19:15:00,40.8,27.6,30.20,ENE,67,2.7,2.7,59,0.00,,,0.16,wxRedirect v1.1,2013-04-02 00:15:00,
2013-04-01 19:22:00,40.8,27.6,30.19,ENE,67,1.6,2.7,59,0.00,,,0.16,wxRedirect v1.1,2013-04-02 00:22:00,
2013-04-01 19:27:00,40.8,27.6,30.19,ENE,67,0.0,1.6,59,0.00,,,0.16,wxRedirect v1.1,2013-04-02 00:27:00,
2013-04-01 19:32:00,40.8,27.6,30.20,ENE,67,3.8,3.8,59,0.00,,,0.16,wxRedirect v1.1,2013-04-02 00:32:00,
2013-04-01 19:38:00,40.8,27.6,30.19,East,90,0.0,3.8,59,0.00,,,0.16,wxRedirect v1.1,2013-04-02 00:38:00,
2013-04-01 19:43:00,40.8,27.6,30.19,East,90,0.0,0.0,59,0.00,,,0.16,wxRedirect v1.1,2013-04-02 00:43:00,
2013-04-01 19:48:00,40.8,28.0,30.19,ENE,67,2.2,2.2,60,0.00,,,0.16,wxRedirect v1.1,2013-04-02 00:48:00,
2013-04-01 19:53:00,40.6,27.9,30.19,ENE,67,0.0,2.2,60,0.00,,,0.16,wxRedirect v1.1,2013-04-02 00:53:00,
2013-04-01 19:59:00,40.8,28.0,30.20,ENE,67,0.0,2.2,60,0.00,,,0.16,wxRedirect v1.1,2013-04-02 00:59:00,
2013-04-01 20:04:00,41.0,28.2,30.19,ENE,67,0.0,0.0,60,0.00,,,0.16,wxRedirect v1.1,2013-04-02 01:04:00,
2013-04-01 20:09:00,41.0,28.2,30.19,ENE,67,0.0,0.0,60,0.00,,,0.16,wxRedirect v1.1,2013-04-02 01:09:00,
2013-04-01 20:15:00,41.0,27.8,30.20,ENE,67,0.0,0.4,59,0.00,,,0.16,wxRedirect v1.1,2013-04-02 01:15:00,
2013-04-01 20:20:00,41.0,27.8,30.20,ENE,67,0.0,2.9,59,0.00,,,0.16,wxRedirect v1.1,2013-04-02 01:20:00,
2013-04-01 20:26:00,41.0,27.8,30.19,ENE,67,1.1,4.7,59,0.00,,,0.16,wxRedirect v1.1,2013-04-02 01:26:00,
2013-04-01 20:31:00,40.8,27.6,30.19,NE,45,5.4,5.4,59,0.00,,,0.16,wxRedirect v1.1,2013-04-02 01:31:00,
2013-04-01 20:36:00,40.8,27.6,30.19,NE,45,0.0,5.4,59,0.00,,,0.16,wxRedirect v1.1,2013-04-02 01:36:00,
2013-04-01 20:41:00,41.0,27.8,30.20,NE,45,0.0,0.0,59,0.00,,,0.16,wxRedirect v1.1,2013-04-02 01:41:00,
2013-04-01 20:46:00,41.0,27.8,30.20,NE,45,0.0,1.8,59,0.00,,,0.16,wxRedirect v1.1,2013-04-02 01:46:00,
2013-04-01 20:51:00,41.0,27.8,30.20,NE,45,3.1,3.1,59,0.00,,,0.16,wxRedirect v1.1,2013-04-02 01:51:00,
2013-04-01 20:56:00,41.2,28.4,30.20,NE,45,0.0,3.1,60,0.00,,,0.16,wxRedirect v1.1,2013-04-02 01:56:00,
2013-04-01 21:02:00,41.2,27.9,30.21,NE,45,3.1,3.1,59,0.00,,,0.16,wxRedirect v1.1,2013-04-02 02:02:00,
2013-04-01 21:07:00,41.0,27.8,30.21,ENE,67,2.9,3.1,59,0.00,,,0.16,wxRedirect v1.1,2013-04-02 02:07:00,
2013-04-01 21:12:00,41.2,27.9,30.21,NE,45,3.6,3.6,59,0.00,,,0.16,wxRedirect v1.1,2013-04-02 02:12:00,
2013-04-01 21:18:00,41.2,27.9,30.21,NE,45,2.0,3.6,59,0.00,,,0.16,wxRedirect v1.1,2013-04-02 02:18:00,
2013-04-01 21:23:00,41.2,27.9,30.22,NE,45,4.7,6.5,59,0.00,,,0.16,wxRedirect v1.1,2013-04-02 02:23:00,
2013-04-01 21:28:00,41.2,27.9,30.21,NNE,22,1.6,6.5,59,0.00,,,0.16,wxRedirect v1.1,2013-04-02 02:28:00,
2013-04-01 21:34:00,41.2,27.9,30.21,ENE,67,0.0,5.6,59,0.00,,,0.16,wxRedirect v1.1,2013-04-02 02:34:00,
2013-04-01 21:39:00,41.2,27.9,30.22,ENE,67,0.7,7.6,59,0.00,,,0.16,wxRedirect v1.1,2013-04-02 02:39:00,
2013-04-01 21:44:00,41.2,27.9,30.22,NE,45,6.5,7.6,59,0.00,,,0.16,wxRedirect v1.1,2013-04-02 02:44:00,
2013-04-01 21:50:00,41.2,27.9,30.22,NE,45,0.0,6.5,59,0.00,,,0.16,wxRedirect v1.1,2013-04-02 02:50:00,
2013-04-01 21:55:00,41.2,27.9,30.22,NE,45,1.3,2.5,59,0.00,,,0.16,wxRedirect v1.1,2013-04-02 02:55:00,
2013-04-01 22:01:00,41.2,27.9,30.21,East,90,3.6,3.6,59,0.00,,,0.16,wxRedirect v1.1,2013-04-02 03:01:00,
2013-04-01 22:06:00,41.2,27.9,30.22,NE,45,7.6,7.6,59,0.00,,,0.16,wxRedirect v1.1,2013-04-02 03:06:00,
2013-04-01 22:11:00,41.2,27.5,30.22,NE,45,8.1,8.1,58,0.00,,,0.16,wxRedirect v1.1,2013-04-02 03:11:00,
2013-04-01 22:16:00,41.2,27.5,30.22,NE,45,6.3,8.1,58,0.00,,,0.16,wxRedirect v1.1,2013-04-02 03:16:00,
2013-04-01 22:22:00,41.2,27.0,30.22,ENE,67,2.9,6.3,57,0.00,,,0.16,wxRedirect v1.1,2013-04-02 03:22:00,
2013-04-01 22:27:00,41.0,26.9,30.22,ENE,67,4.9,6.3,57,0.00,,,0.16,wxRedirect v1.1,2013-04-02 03:27:00,
2013-04-01 22:32:00,41.2,26.6,30.22,NE,45,4.3,6.5,56,0.00,,,0.16,wxRedirect v1.1,2013-04-02 03:32:00,
2013-04-01 22:38:00,41.0,26.4,30.21,NE,45,4.3,7.2,56,0.00,,,0.16,wxRedirect v1.1,2013-04-02 03:38:00,
2013-04-01 22:43:00,41.2,26.6,30.21,ENE,67,4.9,7.2,56,0.00,,,0.16,wxRedirect v1.1,2013-04-02 03:43:00,
2013-04-01 22:48:00,41.0,26.0,30.21,NE,45,4.9,8.1,55,0.00,,,0.16,wxRedirect v1.1,2013-04-02 03:48:00,
2013-04-01 22:54:00,41.0,26.4,30.21,NNE,22,10.3,10.3,56,0.00,,,0.16,wxRedirect v1.1,2013-04-02 03:54:00,
2013-04-01 22:59:00,41.0,26.4,30.21,NE,45,3.4,10.3,56,0.00,,,0.16,wxRedirect v1.1,2013-04-02 03:59:00,
2013-04-01 23:00:00,41.0,26.4,30.21,NE,45,3.4,10.3,56,0.00,,,0.16,wxRedirect v1.1,2013-04-02 04:00:00,
2013-04-01 23:01:00,41.0,26.4,30.21,NE,45,5.1,10.3,56,0.00,,,0.16,wxRedirect v1.1,2013-04-02 04:01:00,
2013-04-01 23:03:00,41.0,26.4,30.21,NE,45,5.1,10.3,56,0.00,,,0.16,wxRedirect v1.1,2013-04-02 04:03:00,
2013-04-01 23:08:00,41.0,26.4,30.21,NE,45,3.4,9.6,56,0.00,,,0.16,wxRedirect v1.1,2013-04-02 04:08:00,
2013-04-01 23:14:00,41.0,26.4,30.20,ENE,67,2.7,9.6,56,0.00,,,0.16,wxRedirect v1.1,2013-04-02 04:14:00,
2013-04-01 23:19:00,40.8,26.2,30.20,NE,45,9.6,15.9,56,0.00,,,0.16,wxRedirect v1.1,2013-04-02 04:19:00,
2013-04-01 23:24:00,40.8,26.2,30.21,ENE,67,3.6,15.9,56,0.00,,,0.16,wxRedirect v1.1,2013-04-02 04:24:00,
2013-04-01 23:29:00,40.8,26.2,30.20,ENE,67,4.3,5.6,56,0.00,,,0.16,wxRedirect v1.1,2013-04-02 04:29:00,
2013-04-01 23:35:00,40.8,26.2,30.20,ENE,67,5.6,8.1,56,0.00,,,0.16,wxRedirect v1.1,2013-04-02 04:35:00,
2013-04-01 23:40:00,40.8,25.8,30.20,ENE,67,7.8,8.1,55,0.00,,,0.16,wxRedirect v1.1,2013-04-02 04:40:00,
2013-04-01 23:45:00,40.8,25.8,30.20,ENE,67,4.7,7.8,55,0.00,,,0.16,wxRedirect v1.1,2013-04-02 04:45:00,
2013-04-01 23:51:00,40.8,25.8,30.21,NE,45,2.5,4.7,55,0.00,,,0.16,wxRedirect v1.1,2013-04-02 04:51:00,
2013-04-01 23:56:00,40.8,25.8,30.21,NE,45,6.5,6.5,55,0.00,,,0.16,wxRedirect v1.1,2013-04-02 04:56:00,